Jilin-1 GaoFen 03D-47

operational
NORAD ID: 54692 Int'l Des: 2022-167 Owner: CGSTL Country: CN Constellation: jilin-1
LEOCIRCULARRETROGRADE

Jilin-1 GaoFen 03D-47について

説明を読み込み中...

リアルタイム位置

3D地球を読み込み中...

次回通過

高度履歴

Altitude vs Time

uPlot chart will show altitude changes over time

軌道要素

1 54692U 22167L 26062.16134674 .00015155 00000-0 50051-3 0 9993
2 54692 97.6815 227.6164 0008786 132.2020 227.9968 15.31459620179108
Epoch: Mar 3, 2026 • Age: 24 hours

現在のステータス

高度 477.2 km
速度 7.63 km/s
衛星直下点 6.16°N, 61.61°E
打ち上げ日 Dec 9, 2022
運用期間 3.2 years
タイプ earth observation

技術仕様

分類 Payload
質量 42.00 kg
乾燥質量 42.00 kg
総質量 42.00 kg
長さ 1.50 m
直径 1.00 m
スパン 1.50 m
形状 Box
製造者 CGSTL
バスタイプ JL-1
フェーズステータス In Orbit
所有者/国 CGSTL/CN

大規模コンステレーション

Loading constellations...